TimeEST,TemperatureF,Dew PointF,Humidity,Sea Level PressureIn,VisibilityMPH,Wind Direction,Wind SpeedMPH,Gust SpeedMPH,PrecipitationIn,Events,Conditions,WindDirDegrees,DateUTC
12:54 AM,34.0,24.1,67,30.00,10.0,Calm,Calm,-,N/A,,Clear,0,2013-02-25 05:54:00
1:54 AM,30.9,25.0,79,30.01,10.0,NNW,4.6,-,N/A,,Clear,330,2013-02-25 06:54:00
2:54 AM,30.9,26.1,82,30.01,10.0,Calm,Calm,-,N/A,,Clear,0,2013-02-25 07:54:00
3:54 AM,30.9,26.1,82,30.00,10.0,NNW,3.5,-,N/A,,Clear,340,2013-02-25 08:54:00
4:54 AM,30.9,27.0,85,30.02,10.0,Calm,Calm,-,N/A,,Clear,0,2013-02-25 09:54:00
5:54 AM,32.0,26.1,79,30.04,10.0,Calm,Calm,-,N/A,,Clear,0,2013-02-25 10:54:00
6:54 AM,30.9,27.0,85,30.07,10.0,South,3.5,-,N/A,,Clear,180,2013-02-25 11:54:00
7:54 AM,30.9,28.0,89,30.08,10.0,SE,3.5,-,N/A,,Clear,140,2013-02-25 12:54:00
8:54 AM,34.0,28.0,79,30.12,10.0,Calm,Calm,-,N/A,,Clear,0,2013-02-25 13:54:00
9:54 AM,37.9,26.1,62,30.12,10.0,South,6.9,-,N/A,,Clear,180,2013-02-25 14:54:00
10:54 AM,37.9,24.1,57,30.12,10.0,South,9.2,-,N/A,,Clear,170,2013-02-25 15:54:00
11:54 AM,39.9,24.1,53,30.11,10.0,South,8.1,-,N/A,,Clear,190,2013-02-25 16:54:00
12:54 PM,42.1,25.0,51,30.07,10.0,South,8.1,-,N/A,,Clear,180,2013-02-25 17:54:00
1:54 PM,42.1,23.0,47,30.07,10.0,South,6.9,-,N/A,,Clear,170,2013-02-25 18:54:00
2:54 PM,42.1,24.1,49,30.05,10.0,South,6.9,-,N/A,,Clear,180,2013-02-25 19:54:00
3:54 PM,44.1,25.0,47,30.04,10.0,South,8.1,-,N/A,,Clear,170,2013-02-25 20:54:00
4:54 PM,45.0,24.1,44,30.03,10.0,Calm,Calm,-,N/A,,Scattered Clouds,0,2013-02-25 21:54:00
5:08 PM,44.6,24.8,46,30.01,10.0,South,10.4,-,N/A,,Mostly Cloudy,170,2013-02-25 22:08:00
5:35 PM,42.8,24.8,49,30.00,10.0,South,9.2,-,N/A,,Scattered Clouds,170,2013-02-25 22:35:00
5:54 PM,43.0,25.0,49,30.01,10.0,SSE,8.1,-,N/A,,Scattered Clouds,160,2013-02-25 22:54:00
6:08 PM,42.8,24.8,49,30.00,10.0,SSE,9.2,-,N/A,,Mostly Cloudy,160,2013-02-25 23:08:00
6:54 PM,41.0,26.1,55,30.03,10.0,South,8.1,-,N/A,,Overcast,170,2013-02-25 23:54:00
7:22 PM,41.0,26.6,57,30.01,10.0,SSE,6.9,-,N/A,,Overcast,160,2013-02-26 00:22:00
7:54 PM,41.0,26.1,55,30.03,10.0,SSE,8.1,-,N/A,,Overcast,150,2013-02-26 00:54:00
8:36 PM,39.2,26.6,61,30.02,10.0,South,6.9,-,N/A,,Overcast,170,2013-02-26 01:36:00
8:54 PM,39.0,27.0,62,30.05,10.0,SSE,8.1,-,N/A,,Overcast,160,2013-02-26 01:54:00
9:54 PM,37.0,27.0,67,30.04,10.0,SSE,6.9,-,N/A,,Overcast,160,2013-02-26 02:54:00
10:54 PM,35.1,30.9,85,30.03,5.0,South,8.1,-,0.00,Rain,Light Rain,170,2013-02-26 03:54:00
11:28 PM,33.8,32.0,93,30.00,5.0,South,6.9,-,0.00,,Overcast,190,2013-02-26 04:28:00
11:46 PM,33.8,32.0,93,30.00,3.0,South,8.1,-,0.00,Rain,Light Rain,190,2013-02-26 04:46:00
11:54 PM,33.1,32.0,96,30.02,4.0,South,8.1,-,0.00,Rain,Light Rain,190,2013-02-26 04:54:00